#�ϑ�����,���ϕ���,���ϕ���,�ő啗��,�ő啗����������,�ő�u�ԕ���,�ő�u�ԕ�����������
#(�N����),(m/s)   ,(16����),(m/s)   ,(16����)        ,(m/s)       ,(16����)            
2014/1/10 0:01,3,16,3.1,16,1.9,14
2014/1/10 0:02,2.9,16,3,16,4.5,15
2014/1/10 0:03,2.9,16,2.9,16,6.2,16
2014/1/10 0:04,2.9,16,2.9,16,7.4,15
2014/1/10 0:05,3.2,16,3.2,16,10.2,15
2014/1/10 0:06,3.5,16,3.5,16,7.6,16
2014/1/10 0:07,3.5,16,3.5,16,8.2,15
2014/1/10 0:08,3.5,16,3.5,16,7.1,14
2014/1/10 0:09,3.8,16,3.8,16,7.9,14
2014/1/10 0:10,4.1,16,4.1,16,8.6,1
2014/1/10 0:11,4.3,16,4.3,16,6.1,1
2014/1/10 0:12,4.5,16,4.5,16,7.4,16
2014/1/10 0:13,4.7,16,4.7,16,8.9,16
2014/1/10 0:14,4.8,16,4.8,16,9.9,16
2014/1/10 0:15,4.6,16,4.8,16,8.3,16
2014/1/10 0:16,4.7,16,4.7,16,10,16
2014/1/10 0:17,4.8,16,4.8,16,7.2,1
2014/1/10 0:18,4.8,16,4.9,16,7.6,1
2014/1/10 0:19,5.1,16,5.1,16,12.2,15
2014/1/10 0:20,5.1,16,5.1,16,8.1,16
2014/1/10 0:21,5.1,16,5.1,16,7.9,16
2014/1/10 0:22,5,16,5.1,16,6.2,15
2014/1/10 0:23,4.7,16,5,16,3.7,1
2014/1/10 0:24,4.4,16,4.6,16,4.1,16
2014/1/10 0:25,4.3,16,4.3,16,9.9,1
2014/1/10 0:26,4.3,16,4.4,16,10.5,16
2014/1/10 0:27,4.3,16,4.4,16,9.4,16
2014/1/10 0:28,4.6,16,4.6,16,10.9,16
2014/1/10 0:29,4.6,16,4.6,16,10.1,15
2014/1/10 0:30,4.7,16,4.7,16,10.2,16
2014/1/10 0:31,4.9,16,4.9,16,9.7,16
2014/1/10 0:32,5.1,16,5.1,16,7.5,16
2014/1/10 0:33,5.5,16,5.5,16,10,16
2014/1/10 0:34,5.9,16,5.9,16,9.2,16
2014/1/10 0:35,6,16,6.1,16,10.3,16
2014/1/10 0:36,5.9,16,6,16,8.1,16
2014/1/10 0:37,6,16,6,16,8.6,15
2014/1/10 0:38,5.8,16,6,16,7.1,16
2014/1/10 0:39,5.6,16,5.7,16,8.3,1
2014/1/10 0:40,5.5,16,5.6,16,9.4,16
2014/1/10 0:41,5.5,16,5.6,16,9.4,16
2014/1/10 0:42,5.3,16,5.4,16,6.4,14
2014/1/10 0:43,4.9,16,5.3,16,7.5,16
2014/1/10 0:44,5,16,5,16,10.2,15
2014/1/10 0:45,5.1,16,5.1,16,10.1,16
2014/1/10 0:46,5.1,16,5.1,16,7.6,16
2014/1/10 0:47,5,16,5.1,16,6.8,15
2014/1/10 0:48,5,16,5,16,7.8,16
2014/1/10 0:49,4.8,16,5,16,6,16
2014/1/10 0:50,4.7,16,4.8,16,6.5,16
2014/1/10 0:51,4.4,16,4.6,16,6.9,1
2014/1/10 0:52,4.7,16,4.7,16,8.3,1
2014/1/10 0:53,4.9,16,4.9,16,9.2,16
2014/1/10 0:54,5,16,5,16,9.9,16
2014/1/10 0:55,4.8,16,4.9,16,8.2,1
2014/1/10 0:56,4.8,16,4.8,16,10.1,15
2014/1/10 0:57,4.9,16,4.9,16,8.3,15
2014/1/10 0:58,4.9,16,4.9,16,7.5,16
2014/1/10 0:59,4.8,16,4.9,16,6.9,2
2014/1/10 1:00,5,16,5,16,9,16
2014/1/10 1:01,5.1,16,5.1,16,8.1,16
2014/1/10 1:02,5,16,5,16,8.9,16
2014/1/10 1:03,4.9,16,5.1,16,7.7,16
2014/1/10 1:04,4.6,16,4.8,16,6.4,16
2014/1/10 1:05,4.7,16,4.7,16,8.5,16
2014/1/10 1:06,4.5,16,4.8,16,5.7,16
2014/1/10 1:07,4.4,16,4.5,16,4.8,16
2014/1/10 1:08,4.6,16,4.6,16,11.1,16
2014/1/10 1:09,4.6,16,4.6,16,7,16
2014/1/10 1:10,4.5,16,4.6,16,6.3,16
2014/1/10 1:11,4.6,16,4.6,16,8.6,16
2014/1/10 1:12,4.5,16,4.6,16,8.9,15
2014/1/10 1:13,4.4,16,4.4,16,7,15
2014/1/10 1:14,4.5,16,4.5,16,11.4,15
2014/1/10 1:15,4.5,16,4.6,16,9,16
2014/1/10 1:16,4.6,16,4.6,16,7,16
2014/1/10 1:17,5,16,5,16,11.5,16
2014/1/10 1:18,4.8,16,5,16,7.7,1
2014/1/10 1:19,5,16,5,16,10,16
2014/1/10 1:20,5.2,16,5.2,16,8.9,16
2014/1/10 1:21,5.3,16,5.3,16,8.7,16
2014/1/10 1:22,5.3,16,5.4,16,7.4,16
2014/1/10 1:23,5.2,16,5.2,16,7,1
2014/1/10 1:24,5.5,16,5.5,16,12.4,16
2014/1/10 1:25,5.4,16,5.5,16,10.6,16
2014/1/10 1:26,5.8,16,5.8,16,11.8,16
2014/1/10 1:27,5.6,16,5.7,16,9.1,16
2014/1/10 1:28,5.7,16,5.7,16,9.7,16
2014/1/10 1:29,5.6,16,5.8,16,7.5,16
2014/1/10 1:30,5.6,16,5.6,16,7.7,16
2014/1/10 1:31,5.4,16,5.6,16,9.1,16
2014/1/10 1:32,5.5,16,5.5,16,9.8,16
2014/1/10 1:33,5.8,16,5.8,16,10.7,1
2014/1/10 1:34,5.7,16,5.8,16,8.6,15
2014/1/10 1:35,5.7,16,5.7,16,9.4,1
2014/1/10 1:36,5.3,16,5.6,16,7.2,16
2014/1/10 1:37,5.4,16,5.4,16,10.9,16
2014/1/10 1:38,5.4,16,5.5,16,10.3,1
2014/1/10 1:39,5.4,16,5.4,16,10.2,15
2014/1/10 1:40,5.4,16,5.5,16,12.4,16
2014/1/10 1:41,5.6,16,5.6,16,10.2,1
2014/1/10 1:42,5.7,16,5.7,16,8.1,15
2014/1/10 1:43,5.5,16,5.6,16,11.5,15
2014/1/10 1:44,5.6,16,5.6,16,9.8,16
2014/1/10 1:45,5.5,16,5.6,16,7.2,16
2014/1/10 1:46,5.4,16,5.5,16,6,15
2014/1/10 1:47,5.3,16,5.5,16,7.2,16
2014/1/10 1:48,5.1,16,5.3,16,5.8,16
2014/1/10 1:49,5.1,16,5.1,16,6.2,1
2014/1/10 1:50,4.8,16,5,16,6,1
2014/1/10 1:51,4.7,16,4.8,16,7,16
2014/1/10 1:52,4.5,16,4.7,16,6,16
2014/1/10 1:53,4.5,16,4.5,16,7.8,16
2014/1/10 1:54,4.2,16,4.5,16,7.5,15
2014/1/10 1:55,4.1,16,4.2,16,6.8,16
2014/1/10 1:56,4.1,16,4.1,16,7,16
2014/1/10 1:57,4.1,16,4.1,16,6.5,1
2014/1/10 1:58,4,16,4.1,16,4.7,14
2014/1/10 1:59,4,16,4,16,6.5,16
2014/1/10 2:00,4.3,16,4.3,16,8.5,16
2014/1/10 2:01,4.3,16,4.3,16,6.8,16
2014/1/10 2:02,4.3,16,4.3,16,10.1,15
2014/1/10 2:03,4.2,16,4.3,16,8.9,15
2014/1/10 2:04,4.4,16,4.4,16,10,1
2014/1/10 2:05,4.7,16,4.7,16,10.5,16
2014/1/10 2:06,5.2,16,5.2,16,13.3,16
2014/1/10 2:07,5.2,16,5.2,16,8.4,2
2014/1/10 2:08,5.6,16,5.6,16,8.7,16
2014/1/10 2:09,5.8,16,5.8,16,9.5,15
2014/1/10 2:10,5.5,16,5.7,16,5.8,16
2014/1/10 2:11,5.6,16,5.6,16,9.1,16
2014/1/10 2:12,5.7,16,5.8,16,10,15
2014/1/10 2:13,5.8,16,5.8,16,10.9,14
2014/1/10 2:14,5.8,16,5.9,16,10.8,15
2014/1/10 2:15,5.9,16,5.9,16,11.8,15
2014/1/10 2:16,5.9,16,5.9,16,10.9,16
2014/1/10 2:17,5.8,16,5.9,16,5.8,15
2014/1/10 2:18,5.6,16,5.8,16,5.6,16
2014/1/10 2:19,5.5,16,5.5,16,9.2,16
2014/1/10 2:20,5.7,16,5.7,16,11,15
2014/1/10 2:21,5.7,16,5.8,16,10.6,14
2014/1/10 2:22,5.5,16,5.7,16,7.6,16
2014/1/10 2:23,5.5,16,5.6,16,6.9,16
2014/1/10 2:24,5.4,16,5.5,16,6,15
2014/1/10 2:25,4.8,16,5.3,16,4.2,15
2014/1/10 2:26,4.5,16,4.7,16,6.9,14
2014/1/10 2:27,4.4,16,4.5,16,5.6,15
2014/1/10 2:28,4.6,16,4.6,16,10.2,16
2014/1/10 2:29,4.5,16,4.7,16,7.4,16
2014/1/10 2:30,4.3,16,4.6,16,4.8,15
2014/1/10 2:31,4.3,16,4.3,16,8.7,16
2014/1/10 2:32,4.5,16,4.5,16,9.4,16
2014/1/10 2:33,4.6,16,4.6,16,9.1,14
2014/1/10 2:34,4.5,16,4.6,16,8.2,16
2014/1/10 2:35,4.8,16,4.8,16,8.6,16
2014/1/10 2:36,4.8,16,4.9,16,7.6,16
2014/1/10 2:37,4.8,16,4.9,16,6,15
2014/1/10 2:38,4.8,16,5,16,9,16
2014/1/10 2:39,4.9,16,4.9,16,9,16
2014/1/10 2:40,5.2,16,5.2,16,10.6,16
2014/1/10 2:41,5,16,5.2,16,6.9,15
2014/1/10 2:42,4.8,16,5,16,5.5,16
2014/1/10 2:43,4.6,16,4.8,16,9.9,16
2014/1/10 2:44,4.8,16,4.9,16,9.1,16
2014/1/10 2:45,4.6,16,4.8,16,5.6,2
2014/1/10 2:46,4.4,16,4.6,16,6,15
2014/1/10 2:47,4.5,16,4.5,16,8.7,1
2014/1/10 2:48,4.3,16,4.5,16,7.1,16
2014/1/10 2:49,4.2,16,4.3,16,6.5,16
2014/1/10 2:50,4,16,4.2,16,7.5,16
2014/1/10 2:51,3.8,16,3.9,16,4.4,16
2014/1/10 2:52,3.9,16,3.9,16,6.8,14
2014/1/10 2:53,3.8,16,3.9,16,6.7,16
2014/1/10 2:54,3.6,16,3.7,16,8.3,15
2014/1/10 2:55,3.8,16,3.8,16,7.8,1
2014/1/10 2:56,3.9,16,3.9,16,6.5,15
2014/1/10 2:57,3.8,16,4,16,6,16
2014/1/10 2:58,3.9,16,3.9,16,7.8,16
2014/1/10 2:59,3.9,16,3.9,16,7.2,16
2014/1/10 3:00,4,16,4,16,7.1,14
2014/1/10 3:01,4,16,4,16,5.8,16
2014/1/10 3:02,3.9,16,4,16,5,16
2014/1/10 3:03,3.9,16,3.9,16,7.1,16
2014/1/10 3:04,3.9,16,4,16,6.3,15
2014/1/10 3:05,3.7,15,3.9,16,3.5,14
2014/1/10 3:06,3.5,15,3.7,16,4.5,15
2014/1/10 3:07,3.3,15,3.4,16,3.8,16
2014/1/10 3:08,3.1,15,3.3,16,3.7,15
2014/1/10 3:09,3,15,3.1,16,5.1,16
2014/1/10 3:10,2.9,16,2.9,16,6.2,15
2014/1/10 3:11,2.8,16,2.9,16,4.9,1
2014/1/10 3:12,2.9,16,2.9,16,6.2,1
2014/1/10 3:13,2.9,16,3,16,7,1
2014/1/10 3:14,2.9,16,2.9,16,6.8,1
2014/1/10 3:15,2.9,16,2.9,15,6.5,16
2014/1/10 3:16,2.9,16,2.9,15,4.1,16
2014/1/10 3:17,3.1,16,3.1,15,5.6,16
2014/1/10 3:18,3.2,16,3.2,16,4.8,16
2014/1/10 3:19,3.1,16,3.2,16,3.6,14
2014/1/10 3:20,3.1,16,3.2,16,4.5,15
2014/1/10 3:21,3.1,15,3.1,16,4.7,15
2014/1/10 3:22,3,15,3.1,16,3.1,15
2014/1/10 3:23,2.8,15,2.9,16,3.5,16
2014/1/10 3:24,2.8,15,2.8,16,10.5,16
2014/1/10 3:25,3.2,15,3.2,16,10.7,1
2014/1/10 3:26,3.3,15,3.3,15,5.4,16
2014/1/10 3:27,3.2,15,3.2,15,6.8,15
2014/1/10 3:28,3.3,15,3.3,15,8.2,1
2014/1/10 3:29,3.6,15,3.6,15,6,15
2014/1/10 3:30,3.8,15,3.8,16,8.5,16
2014/1/10 3:31,3.7,15,3.8,16,3.9,13
2014/1/10 3:32,3.7,15,3.7,16,2.4,14
2014/1/10 3:33,3.8,15,3.8,16,4.3,16
2014/1/10 3:34,3.7,15,3.8,16,5.2,15
2014/1/10 3:35,3.4,15,3.6,16,6.4,16
2014/1/10 3:36,3.6,15,3.6,16,6.8,15
2014/1/10 3:37,3.6,15,3.7,16,5.5,15
2014/1/10 3:38,3.8,15,3.8,16,12.1,16
2014/1/10 3:39,4,15,4,15,12.3,16
2014/1/10 3:40,4,15,4,15,8.4,15
2014/1/10 3:41,4.1,15,4.1,15,8.1,16
2014/1/10 3:42,4.2,16,4.2,16,4.9,15
2014/1/10 3:43,4.3,16,4.3,16,5.8,16
2014/1/10 3:44,4.3,16,4.4,16,5.5,16
2014/1/10 3:45,4.2,16,4.3,16,4.8,15
2014/1/10 3:46,4.1,16,4.2,16,6.4,16
2014/1/10 3:47,4.2,16,4.2,16,7.2,16
2014/1/10 3:48,4.1,16,4.3,16,9.5,16
2014/1/10 3:49,3.8,16,4,16,7.2,1
2014/1/10 3:50,3.8,16,3.9,16,8.6,16
2014/1/10 3:51,4,16,4,16,8.2,15
2014/1/10 3:52,4.4,16,4.4,16,9.4,1
2014/1/10 3:53,4.4,16,4.5,16,8.1,15
2014/1/10 3:54,4.4,16,4.4,16,7.1,1
2014/1/10 3:55,4.7,16,4.7,16,9,16
2014/1/10 3:56,4.7,16,4.7,16,6.7,15
2014/1/10 3:57,4.6,16,4.7,16,7.1,16
2014/1/10 3:58,4.6,16,4.6,16,7.7,16
2014/1/10 3:59,4.7,16,4.7,16,8.2,16
2014/1/10 4:00,4.9,16,4.9,16,9.7,16
2014/1/10 4:01,4.7,16,4.9,16,7,16
2014/1/10 4:02,4.8,16,4.8,16,10,1
2014/1/10 4:03,4.9,16,4.9,16,8.6,1
2014/1/10 4:04,5.1,16,5.1,16,8.3,16
2014/1/10 4:05,5,16,5.1,16,8.3,16
2014/1/10 4:06,5.2,16,5.2,16,7.7,2
2014/1/10 4:07,5.3,16,5.3,16,7.9,16
2014/1/10 4:08,5.5,16,5.5,16,7.5,16
2014/1/10 4:09,5.4,16,5.5,16,6.1,16
2014/1/10 4:10,5.3,16,5.4,16,7.9,15
2014/1/10 4:11,5.3,16,5.3,16,6.5,16
2014/1/10 4:12,5,16,5.3,16,6.2,16
2014/1/10 4:13,5,16,5.1,16,7,15
2014/1/10 4:14,5,16,5,16,7.9,16
2014/1/10 4:15,4.9,16,4.9,16,5.8,1
2014/1/10 4:16,4.9,16,4.9,16,6.4,2
2014/1/10 4:17,4.8,16,4.9,16,7.7,16
2014/1/10 4:18,4.5,16,4.7,16,3.9,16
2014/1/10 4:19,4.4,16,4.5,16,4.5,16
2014/1/10 4:20,4,16,4.4,16,4.4,1
2014/1/10 4:21,3.8,16,4,16,3,16
2014/1/10 4:22,3.6,16,3.8,16,2.6,16
2014/1/10 4:23,3.3,16,3.6,16,2.9,16
2014/1/10 4:24,3.1,16,3.3,16,3.8,15
2014/1/10 4:25,2.9,16,3.1,16,5.6,15
2014/1/10 4:26,2.8,15,2.9,16,6.8,12
2014/1/10 4:27,2.7,16,2.8,16,7.8,16
2014/1/10 4:28,2.8,16,2.8,16,7,16
2014/1/10 4:29,2.8,16,2.8,16,3.9,1
2014/1/10 4:30,2.7,16,2.7,16,3.1,15
2014/1/10 4:31,2.6,16,2.7,16,2.6,15
2014/1/10 4:32,2.6,16,2.6,16,1.9,16
2014/1/10 4:33,2.8,15,2.8,16,7.6,16
2014/1/10 4:34,2.9,15,2.9,16,5.7,16
2014/1/10 4:35,2.9,15,2.9,16,4.5,14
2014/1/10 4:36,3,16,3,16,6.5,16
2014/1/10 4:37,2.9,16,3,16,5.6,16
2014/1/10 4:38,2.7,15,2.9,16,3.7,1
2014/1/10 4:39,2.7,15,2.7,16,4.3,15
2014/1/10 4:40,2.8,15,2.8,16,4.4,15
2014/1/10 4:41,2.9,15,2.9,16,4.2,15
2014/1/10 4:42,3.2,15,3.2,15,6.5,14
2014/1/10 4:43,3.3,15,3.4,15,9.2,16
2014/1/10 4:44,3.3,15,3.3,15,6.3,16
2014/1/10 4:45,3.5,16,3.5,16,6.4,16
2014/1/10 4:46,3.6,15,3.6,15,7.8,15
2014/1/10 4:47,3.7,15,3.7,15,7.6,15
2014/1/10 4:48,3.8,16,3.9,15,6.1,16
2014/1/10 4:49,4,16,4,16,7,16
2014/1/10 4:50,3.9,16,4,16,4.1,1
2014/1/10 4:51,4.1,16,4.1,16,6.3,14
2014/1/10 4:52,3.9,16,4.1,16,5.1,15
2014/1/10 4:53,3.7,16,3.9,16,5.6,16
2014/1/10 4:54,3.7,16,3.7,16,5.6,16
2014/1/10 4:55,3.4,16,3.6,16,3.7,1
2014/1/10 4:56,3.4,16,3.4,16,8.1,15
2014/1/10 4:57,3.2,16,3.4,16,7.1,16
2014/1/10 4:58,3.3,16,3.3,16,6.5,16
2014/1/10 4:59,3.4,16,3.4,16,7.4,15
2014/1/10 5:00,3.5,15,3.5,16,6,15
2014/1/10 5:01,3.4,15,3.5,16,5.4,15
2014/1/10 5:02,3.4,15,3.4,16,3.7,15
2014/1/10 5:03,3.4,15,3.4,16,4.4,15
2014/1/10 5:04,3.3,15,3.4,16,4.3,14
2014/1/10 5:05,3.5,15,3.5,16,6.2,16
2014/1/10 5:06,3.3,15,3.5,16,4.9,16
2014/1/10 5:07,3.2,15,3.3,16,4.1,1
2014/1/10 5:08,3.2,15,3.3,16,3.3,16
2014/1/10 5:09,3,16,3.2,16,3.2,16
2014/1/10 5:10,2.8,16,2.9,15,3.5,16
2014/1/10 5:11,2.7,16,2.8,15,3,16
2014/1/10 5:12,2.6,16,2.7,15,2.5,16
2014/1/10 5:13,2.5,16,2.6,15,2.4,16
2014/1/10 5:14,2.4,16,2.5,15,2,16
2014/1/10 5:15,2,16,2.4,15,1.5,15
2014/1/10 5:16,1.7,16,2,15,0,13
2014/1/10 5:17,1.4,16,1.7,15,0.1,7
2014/1/10 5:18,1.2,15,1.4,15,0.9,11
2014/1/10 5:19,1.2,14,1.2,16,2.9,11
2014/1/10 5:20,1.1,14,1.2,16,2.9,13
2014/1/10 5:21,1.1,13,1.2,16,3.7,12
2014/1/10 5:22,1.2,13,1.2,16,3.2,13
2014/1/10 5:23,1.1,12,1.2,16,2.7,15
2014/1/10 5:24,1.2,12,1.2,16,3.5,12
2014/1/10 5:25,1.5,12,1.5,16,5.7,15
2014/1/10 5:26,1.8,13,1.8,13,5.5,15
2014/1/10 5:27,2.1,13,2.1,13,5.1,15
2014/1/10 5:28,2.3,14,2.3,13,4.7,16
2014/1/10 5:29,2.6,14,2.6,14,5.5,15
2014/1/10 5:30,2.8,14,2.8,14,5.6,15
2014/1/10 5:31,2.7,14,2.7,14,2.7,10
2014/1/10 5:32,2.7,14,2.7,14,2.9,10
2014/1/10 5:33,2.8,15,2.8,14,5.1,15
2014/1/10 5:34,2.8,15,2.8,14,4.1,13
2014/1/10 5:35,2.8,14,2.9,15,5.6,13
2014/1/10 5:36,2.6,14,2.8,15,2.7,13
2014/1/10 5:37,2.5,14,2.6,15,3.5,14
2014/1/10 5:38,2.5,14,2.5,15,3.9,15
2014/1/10 5:39,2.5,14,2.5,15,4.9,15
2014/1/10 5:40,2.4,14,2.5,15,4.4,14
2014/1/10 5:41,2.5,14,2.5,15,3.6,13
2014/1/10 5:42,2.5,14,2.5,15,4.7,14
2014/1/10 5:43,2.5,14,2.5,15,4.2,14
2014/1/10 5:44,2.4,14,2.5,15,3.1,14
2014/1/10 5:45,2.4,14,2.4,14,3.2,15
2014/1/10 5:46,2.3,14,2.4,14,2.9,13
2014/1/10 5:47,2.3,14,2.3,14,2.5,13
2014/1/10 5:48,2.4,14,2.4,14,5,15
2014/1/10 5:49,2.3,14,2.4,14,4.3,15
2014/1/10 5:50,2.5,14,2.5,14,6.2,14
2014/1/10 5:51,2.6,14,2.6,14,4.9,15
2014/1/10 5:52,2.6,15,2.6,14,4.5,16
2014/1/10 5:53,2.8,15,2.8,15,6,16
2014/1/10 5:54,2.9,15,2.9,15,5.1,15
2014/1/10 5:55,3,15,3,15,3.9,16
2014/1/10 5:56,3.2,15,3.2,15,4.9,1
2014/1/10 5:57,3.4,15,3.4,15,4.1,16
2014/1/10 5:58,3.3,15,3.4,15,4.3,16
2014/1/10 5:59,3.1,15,3.3,15,2.9,16
2014/1/10 6:00,2.9,15,3.1,15,3.2,9
2014/1/10 6:01,2.6,16,2.8,15,1.9,14
2014/1/10 6:02,2.6,16,2.6,15,4.9,15
2014/1/10 6:03,2.5,16,2.6,15,4.2,15
2014/1/10 6:04,2.4,15,2.5,15,3,14
2014/1/10 6:05,2.3,15,2.4,15,3.5,15
2014/1/10 6:06,2.2,15,2.3,15,3.9,15
2014/1/10 6:07,2.2,15,2.2,15,3.6,16
2014/1/10 6:08,2.2,15,2.2,15,3.6,15
2014/1/10 6:09,2.3,15,2.3,15,3.7,15
2014/1/10 6:10,2.4,15,2.4,15,3.9,15
2014/1/10 6:11,2.5,15,2.5,16,3.9,15
2014/1/10 6:12,2.6,15,2.6,16,4.2,16
2014/1/10 6:13,2.6,15,2.6,15,4.4,15
2014/1/10 6:14,2.6,15,2.6,15,5.6,16
2014/1/10 6:15,2.7,15,2.7,15,4.4,15
2014/1/10 6:16,2.8,15,2.8,15,5.4,15
2014/1/10 6:17,2.9,15,2.9,15,4.3,16
2014/1/10 6:18,2.9,15,2.9,15,4.1,16
2014/1/10 6:19,3,15,3,15,4.1,15
2014/1/10 6:20,3,16,3,15,4.5,15
2014/1/10 6:21,3.3,16,3.3,16,6.2,16
2014/1/10 6:22,3.3,16,3.3,16,6.7,16
2014/1/10 6:23,3.4,16,3.4,16,5.7,16
2014/1/10 6:24,3.6,16,3.6,16,6.7,16
2014/1/10 6:25,3.6,16,3.6,16,4.7,16
2014/1/10 6:26,3.5,16,3.6,16,3.7,16
2014/1/10 6:27,3.5,16,3.5,16,6.2,16
2014/1/10 6:28,3.7,16,3.7,16,7.2,1
2014/1/10 6:29,3.7,16,3.7,16,6.8,15
2014/1/10 6:30,3.7,16,3.7,16,7.8,15
2014/1/10 6:31,3.8,16,3.8,16,7.9,14
2014/1/10 6:32,3.9,16,3.9,16,6.7,15
2014/1/10 6:33,3.7,16,3.8,16,4.3,15
2014/1/10 6:34,3.4,15,3.7,16,2.2,15
2014/1/10 6:35,3.4,15,3.4,16,5.4,16
2014/1/10 6:36,3.4,15,3.4,16,4.5,14
2014/1/10 6:37,3.4,15,3.5,16,4.5,15
2014/1/10 6:38,3.2,15,3.4,16,3.8,15
2014/1/10 6:39,3.1,15,3.2,16,4.7,14
2014/1/10 6:40,3.1,15,3.2,16,4.4,15
2014/1/10 6:41,2.8,15,3,16,4.3,14
2014/1/10 6:42,2.6,15,2.8,16,4.2,15
2014/1/10 6:43,2.5,15,2.6,16,2.6,14
2014/1/10 6:44,2.5,14,2.5,15,2.5,12
2014/1/10 6:45,2.4,14,2.6,15,2.2,15
2014/1/10 6:46,2.3,14,2.4,15,2.7,12
2014/1/10 6:47,2.1,14,2.2,15,3.7,14
2014/1/10 6:48,2,14,2.1,15,2.4,16
2014/1/10 6:49,1.9,14,2,15,2,15
2014/1/10 6:50,1.8,14,1.9,15,2.7,14
2014/1/10 6:51,1.7,14,1.8,15,2.2,1
2014/1/10 6:52,1.6,14,1.7,15,2,16
2014/1/10 6:53,1.5,15,1.6,14,1.8,2
2014/1/10 6:54,1.5,16,1.5,14,1.8,2
2014/1/10 6:55,1.5,16,1.5,14,1.5,2
2014/1/10 6:56,1.4,16,1.5,14,1.5,1
2014/1/10 6:57,1.3,1,1.4,14,1.3,2
2014/1/10 6:58,1.3,1,1.3,14,2.4,16
2014/1/10 6:59,1.3,1,1.3,14,2.1,15
2014/1/10 7:00,1.2,1,1.3,14,1.3,16
2014/1/10 7:01,1.1,1,1.2,14,1.5,16
2014/1/10 7:02,1.1,1,1.2,15,2.7,14
2014/1/10 7:03,1.2,16,1.2,15,2.7,15
2014/1/10 7:04,1.4,16,1.4,16,3.3,15
2014/1/10 7:05,1.4,16,1.4,16,2.6,15
2014/1/10 7:06,1.5,16,1.5,16,2.6,16
2014/1/10 7:07,1.6,16,1.6,16,2.1,16
2014/1/10 7:08,1.5,15,1.6,16,1.5,15
2014/1/10 7:09,1.6,15,1.6,16,2.5,15
2014/1/10 7:10,1.8,15,1.8,15,3.1,14
2014/1/10 7:11,1.8,15,1.8,15,3,14
2014/1/10 7:12,1.9,15,1.9,15,2.7,15
2014/1/10 7:13,2,15,2,15,3.9,15
2014/1/10 7:14,1.9,15,2,15,3.3,15
2014/1/10 7:15,2,15,2,15,4.1,16
2014/1/10 7:16,2.1,15,2.1,15,3.1,14
2014/1/10 7:17,2.1,15,2.1,15,3.1,14
2014/1/10 7:18,2.2,15,2.2,15,2.2,13
2014/1/10 7:19,2.2,15,2.2,15,2.7,15
2014/1/10 7:20,2.1,15,2.2,15,2,15
2014/1/10 7:21,2,15,2.1,15,2.1,11
2014/1/10 7:22,1.9,15,2,15,1.5,15
2014/1/10 7:23,1.7,15,1.9,15,1.3,16
2014/1/10 7:24,1.6,15,1.7,15,1.5,3
2014/1/10 7:25,1.4,15,1.6,15,1.5,5
2014/1/10 7:26,1.3,16,1.4,15,1.3,4
2014/1/10 7:27,1.2,1,1.3,15,1.4,6
2014/1/10 7:28,1.1,3,1.2,15,1.1,6
2014/1/10 7:29,1,4,1.1,15,1.8,6
2014/1/10 7:30,1,5,1,15,1.6,7
2014/1/10 7:31,0.9,5,1,15,0.8,7
2014/1/10 7:32,0.9,6,0.9,15,1.8,9
2014/1/10 7:33,1,6,1,15,2.1,10
2014/1/10 7:34,1,7,1,15,1.8,8
2014/1/10 7:35,1,7,1,15,1.8,8
2014/1/10 7:36,1.1,7,1.1,16,2,6
2014/1/10 7:37,1.1,7,1.1,1,2.2,5
2014/1/10 7:38,1.1,7,1.1,3,2,2
2014/1/10 7:39,1.1,7,1.2,7,1.9,4
2014/1/10 7:40,1.1,7,1.1,7,1.3,2
2014/1/10 7:41,1.1,6,1.1,7,1.3,3
2014/1/10 7:42,1.2,6,1.2,7,1.5,4
2014/1/10 7:43,1.1,5,1.1,7,1.1,3
2014/1/10 7:44,1,4,1.1,7,1,1
2014/1/10 7:45,0.9,3,1,7,1.4,3
2014/1/10 7:46,0.9,3,0.9,7,1.4,3
2014/1/10 7:47,0.8,3,0.9,7,0.9,8
2014/1/10 7:48,0.7,3,0.8,7,0.5,1
2014/1/10 7:49,0.7,3,0.7,6,0.9,16
2014/1/10 7:50,0.7,3,0.7,6,1.1,4
2014/1/10 7:51,0.7,3,0.7,6,0.9,4
2014/1/10 7:52,0.6,3,0.7,6,0.5,5
2014/1/10 7:53,0.5,3,0.5,5,0.8,4
2014/1/10 7:54,0.5,4,0.5,4,0.9,3
2014/1/10 7:55,0.5,4,0.5,3,1,4
2014/1/10 7:56,0.5,3,0.5,3,0.9,3
2014/1/10 7:57,0.5,3,0.5,3,0.6,3
2014/1/10 7:58,0.5,3,0.5,3,1.4,16
2014/1/10 7:59,0.5,3,0.5,3,0.4,15
2014/1/10 8:00,0.5,3,0.5,3,0.9,12
2014/1/10 8:01,0.5,2,0.5,3,1,9
2014/1/10 8:02,0.5,2,0.5,3,2,9
2014/1/10 8:03,0.5,3,0.5,4,0.6,1
2014/1/10 8:04,0.5,2,0.5,4,0.6,16
2014/1/10 8:05,0.5,1,0.5,4,0.8,1
2014/1/10 8:06,0.6,14,0.6,1,4.1,7
2014/1/10 8:07,0.8,10,0.8,10,2.9,9
2014/1/10 8:08,0.9,9,0.9,10,3.8,8
2014/1/10 8:09,1.2,9,1.2,9,4.2,8
2014/1/10 8:10,1.2,9,1.2,9,2.4,12
2014/1/10 8:11,1.3,9,1.3,9,2.5,9
2014/1/10 8:12,1.3,9,1.3,9,1.6,8
2014/1/10 8:13,1.3,9,1.3,9,1,1
2014/1/10 8:14,1.4,9,1.4,9,2.1,16
2014/1/10 8:15,1.5,8,1.5,9,1.5,2
2014/1/10 8:16,1.3,8,1.5,9,0.5,2
2014/1/10 8:17,1.1,6,1.3,9,0.1,5
2014/1/10 8:18,0.9,5,1.1,9,0.3,15
2014/1/10 8:19,0.6,3,0.9,9,0.1,1
2014/1/10 8:20,0.6,2,0.6,9,0.9,13
2014/1/10 8:21,0.5,1,0.6,9,1.3,8
2014/1/10 8:22,0.4,1,0.5,9,1,7
2014/1/10 8:23,0.5,1,0.5,9,1.8,1
2014/1/10 8:24,0.5,1,0.5,9,2.2,1
2014/1/10 8:25,0.5,1,0.5,8,2.1,2
2014/1/10 8:26,0.7,1,0.7,8,2.7,16
2014/1/10 8:27,0.8,1,0.8,6,1.5,4
2014/1/10 8:28,0.8,1,0.8,4,1.1,2
2014/1/10 8:29,0.9,2,0.9,2,1.1,7
2014/1/10 8:30,1,3,1,3,2.2,7
2014/1/10 8:31,1,3,1,3,1.3,15
2014/1/10 8:32,1,2,1,3,1.6,10
2014/1/10 8:33,0.9,3,1,3,0.9,14
2014/1/10 8:34,0.9,4,0.9,3,1.5,8
2014/1/10 8:35,0.9,6,1,3,2,8
2014/1/10 8:36,1,7,1,3,2.4,11
2014/1/10 8:37,1,9,1,3,2.2,12
2014/1/10 8:38,1,10,1,3,2.1,8
2014/1/10 8:39,1,10,1,3,1.4,6
2014/1/10 8:40,1,11,1,3,1.9,16
2014/1/10 8:41,1,10,1,3,1.4,16
2014/1/10 8:42,1,8,1,2,1.4,1
2014/1/10 8:43,1,7,1,5,1.5,9
2014/1/10 8:44,1.1,7,1.1,7,3.1,10
2014/1/10 8:45,1,10,1.1,7,2.5,10
2014/1/10 8:46,1.2,10,1.2,10,3.3,11
2014/1/10 8:47,1.2,8,1.2,10,2.1,10
2014/1/10 8:48,1.1,11,1.2,10,1.3,9
2014/1/10 8:49,1.1,12,1.1,10,1.1,8
2014/1/10 8:50,1.2,10,1.2,10,3.9,11
2014/1/10 8:51,1.2,10,1.2,10,2.9,11
2014/1/10 8:52,1.4,10,1.4,10,4.5,10
2014/1/10 8:53,1.6,10,1.6,10,4.1,10
2014/1/10 8:54,1.5,10,1.6,10,2.6,8
2014/1/10 8:55,1.7,10,1.7,10,5,10
2014/1/10 8:56,1.6,10,1.7,10,3.8,9
2014/1/10 8:57,1.6,10,1.6,10,2.7,10
2014/1/10 8:58,1.7,10,1.7,10,2.4,8
2014/1/10 8:59,1.7,10,1.7,10,1.6,6
2014/1/10 9:00,1.6,9,1.7,10,2.6,9
2014/1/10 9:01,1.6,9,1.6,10,2.5,9
2014/1/10 9:02,1.4,9,1.6,10,2.6,9
2014/1/10 9:03,1.3,9,1.4,10,2.6,10
2014/1/10 9:04,1.2,9,1.3,10,1.6,8
2014/1/10 9:05,1.3,9,1.3,10,4.2,10
2014/1/10 9:06,1.3,10,1.3,10,4.7,10
2014/1/10 9:07,1.4,10,1.4,10,2.6,9
2014/1/10 9:08,1.4,10,1.4,10,3.5,11
2014/1/10 9:09,1.7,10,1.7,10,5,10
2014/1/10 9:10,2,10,2,10,6.4,10
2014/1/10 9:11,2.2,10,2.2,10,6.1,9
2014/1/10 9:12,2.4,10,2.4,10,4.4,10
2014/1/10 9:13,2.5,10,2.5,10,3,11
2014/1/10 9:14,2.6,10,2.6,10,2.7,10
2014/1/10 9:15,2.4,10,2.6,10,1.3,10
2014/1/10 9:16,2.2,10,2.4,10,2,7
2014/1/10 9:17,2.2,9,2.2,10,2.5,9
2014/1/10 9:18,2.1,9,2.2,10,3,8
2014/1/10 9:19,1.8,9,2.1,10,1.6,10
2014/1/10 9:20,1.6,9,1.8,10,2.6,11
2014/1/10 9:21,1.4,9,1.6,10,2.6,9
2014/1/10 9:22,1.2,10,1.4,10,2.4,11
2014/1/10 9:23,1.1,10,1.2,10,0.9,11
2014/1/10 9:24,1,10,1.1,10,1.4,10
2014/1/10 9:25,1,10,1,10,0.8,7
2014/1/10 9:26,0.9,10,1,10,0.8,1
2014/1/10 9:27,0.9,11,0.9,9,1.5,9
2014/1/10 9:28,0.9,11,0.9,9,2.7,9
2014/1/10 9:29,1,10,1,9,3.3,10
2014/1/10 9:30,1.1,10,1.1,9,4.4,9
2014/1/10 9:31,1.2,10,1.2,9,3.9,9
2014/1/10 9:32,1.3,10,1.3,10,3.8,12
2014/1/10 9:33,1.4,10,1.4,10,3.5,10
2014/1/10 9:34,1.7,10,1.7,10,4.9,10
2014/1/10 9:35,2,10,2,10,4.9,10
2014/1/10 9:36,2.3,10,2.3,10,3.9,10
2014/1/10 9:37,2.3,10,2.3,10,2.9,10
2014/1/10 9:38,2.3,10,2.4,10,3,9
2014/1/10 9:39,2.6,10,2.6,10,6.2,10
2014/1/10 9:40,2.7,10,2.7,10,6.1,9
2014/1/10 9:41,2.7,10,2.7,10,4.7,11
2014/1/10 9:42,2.6,10,2.7,10,4.1,12
2014/1/10 9:43,2.7,10,2.7,10,5.1,11
2014/1/10 9:44,2.7,10,2.7,10,4.4,10
2014/1/10 9:45,2.6,10,2.6,10,4.7,10
2014/1/10 9:46,2.7,10,2.7,10,4.9,10
2014/1/10 9:47,2.9,10,2.9,10,4.8,10
2014/1/10 9:48,3,10,3,10,4.3,10
2014/1/10 9:49,2.8,10,3,10,3.6,10
2014/1/10 9:50,2.6,10,2.8,10,3.5,7
2014/1/10 9:51,2.6,10,2.7,10,4.4,9
2014/1/10 9:52,2.5,10,2.6,10,3.1,9
2014/1/10 9:53,2.6,10,2.6,10,5.6,9
2014/1/10 9:54,2.6,10,2.6,10,5.5,9
2014/1/10 9:55,2.4,10,2.6,10,4.1,10
2014/1/10 9:56,2.2,10,2.4,10,3.2,7
2014/1/10 9:57,2.1,9,2.2,10,4.2,8
2014/1/10 9:58,2,9,2.1,10,4.3,9
2014/1/10 9:59,2,9,2,10,4.7,10
2014/1/10 10:00,2,9,2.1,10,3,9
2014/1/10 10:01,2,9,2,10,4.7,8
2014/1/10 10:02,2,9,2,10,4.5,8
2014/1/10 10:03,2.1,10,2.1,10,5.2,10
2014/1/10 10:04,2.1,10,2.1,10,5.2,10
2014/1/10 10:05,2.3,10,2.3,10,5,11
2014/1/10 10:06,2.4,10,2.4,10,5.6,10
2014/1/10 10:07,2.4,10,2.4,10,5.4,10
2014/1/10 10:08,2.5,10,2.5,10,5.4,9
2014/1/10 10:09,2.4,10,2.5,10,5.8,9
2014/1/10 10:10,2.4,10,2.4,10,3.6,8
2014/1/10 10:11,2.6,10,2.6,10,7.9,8
2014/1/10 10:12,2.7,10,2.7,10,7,10
2014/1/10 10:13,2.5,10,2.6,10,5.4,9
2014/1/10 10:14,2.6,10,2.6,10,7.2,10
2014/1/10 10:15,2.6,10,2.6,10,7,10
2014/1/10 10:16,2.6,10,2.6,10,4.4,11
2014/1/10 10:17,2.7,10,2.7,10,7.1,9
2014/1/10 10:18,2.9,10,2.9,10,8.9,9
2014/1/10 10:19,3,10,3.1,10,7.7,9
2014/1/10 10:20,2.9,10,3.1,10,1.3,7
2014/1/10 10:21,2.8,10,2.9,10,5.2,10
2014/1/10 10:22,3.1,10,3.1,10,6,10
2014/1/10 10:23,3.3,10,3.3,10,5.6,10
2014/1/10 10:24,3,10,3.3,10,4.5,10
2014/1/10 10:25,2.8,10,3,10,2.5,11
2014/1/10 10:26,2.9,10,2.9,10,4.3,10
2014/1/10 10:27,2.8,10,2.9,10,5.6,9
2014/1/10 10:28,2.6,10,2.8,10,6.2,10
2014/1/10 10:29,2.6,10,2.6,10,5.4,9
2014/1/10 10:30,2.7,10,2.7,10,4.3,10
2014/1/10 10:31,2.6,10,2.7,10,2,14
2014/1/10 10:32,2.3,10,2.5,10,3.7,10
2014/1/10 10:33,2.1,10,2.2,10,3.8,7
2014/1/10 10:34,2,10,2.1,10,2.7,10
2014/1/10 10:35,2.1,10,2.1,10,4.4,7
2014/1/10 10:36,2,10,2.1,10,4.1,10
2014/1/10 10:37,1.9,10,2,10,3,9
2014/1/10 10:38,1.7,10,1.9,10,2.6,11
2014/1/10 10:39,1.5,10,1.7,10,3,9
2014/1/10 10:40,1.5,10,1.5,10,3.7,8
2014/1/10 10:41,1.8,10,1.8,10,5.5,11
2014/1/10 10:42,2,10,2,10,5.1,9
2014/1/10 10:43,2.1,10,2.1,10,4.2,9
2014/1/10 10:44,2.2,10,2.2,10,3.2,9
2014/1/10 10:45,2.1,11,2.2,10,2.2,12
2014/1/10 10:46,2,10,2.1,10,3.6,7
2014/1/10 10:47,2.2,10,2.2,10,4.1,11
2014/1/10 10:48,2.3,10,2.3,10,4.9,10
2014/1/10 10:49,2.5,10,2.5,10,4.9,9
2014/1/10 10:50,2.6,10,2.6,10,4.4,11
2014/1/10 10:51,2.5,10,2.6,10,4.7,9
2014/1/10 10:52,2.3,10,2.4,10,3.6,10
2014/1/10 10:53,2.2,10,2.3,10,2.2,13
2014/1/10 10:54,2.1,10,2.2,10,4.1,8
2014/1/10 10:55,2.3,10,2.3,10,7.6,10
2014/1/10 10:56,2.3,10,2.3,10,4.8,9
2014/1/10 10:57,2.3,10,2.3,10,3.8,9
2014/1/10 10:58,2.2,10,2.3,10,3.5,9
2014/1/10 10:59,2,10,2.2,10,2.9,9
2014/1/10 11:00,2,10,2.1,10,4.7,11
2014/1/10 11:01,2,10,2.1,10,4.4,9
2014/1/10 11:02,2.2,10,2.2,10,6.3,10